Theta_e
351 349 342 337 337 338 338 342 345 347 345 345 344 343 343 343 341 336 334 333 337 337 336 337 338 341 342 342 339 337 336 337 337 338 341 342 341 341 342 342 342 341 340 339 338 337 337 337 336 336 335 335 335 335 335 337 336 336 338 337 337 338 338 338 339 339 339 338 339 341 340 340 340 341 340 340 340 339 339 339 340 340 339 339 338
350 348 343 338 337 337 337 342 345 348 346 346 345 344 344 342 340 336 334 333 336 337 336 338 340 343 342 341 339 337 337 339 340 342 343 342 342 341 342 342 341 339 338 338 338 337 337 337 336 336 336 336 335 336 336 336 336 335 337 337 337 338 338 338 338 339 338 338 338 339 339 339 340 340 340 340 340 340 340 340 339 339 339 338 339
349 348 346 339 336 337 337 341 344 347 346 347 346 345 344 342 340 336 334 333 336 337 338 340 342 342 341 341 338 337 338 341 342 343 342 342 342 342 342 340 339 338 338 338 338 337 337 337 336 336 336 336 335 336 336 336 335 333 335 336 336 337 337 337 337 338 338 338 338 338 339 339 339 340 340 339 338 338 338 338 337 338 338 338 338
348 348 346 338 336 338 338 342 344 346 347 348 346 346 344 342 339 336 335 334 338 339 340 342 343 342 340 339 336 336 339 342 342 341 340 341 342 341 340 338 338 338 339 339 337 337 337 337 336 337 336 335 335 335 335 335 334 332 334 335 335 336 336 336 336 336 336 337 338 338 339 339 340 339 338 337 337 336 336 335 334 334 336 336 336
347 346 345 341 340 340 339 342 344 346 347 347 347 346 344 342 339 337 336 337 341 341 342 343 342 341 338 336 335 336 338 341 342 341 338 341 342 341 339 338 338 339 340 338 337 337 337 338 337 337 336 334 333 333 333 334 333 332 333 334 334 335 334 334 334 335 335 336 336 337 337 338 339 338 337 336 336 336 336 335 334 333 333 334 335
347 346 345 344 345 343 338 342 344 346 347 347 346 346 344 342 340 338 337 339 341 342 343 343 341 340 336 335 336 338 338 340 342 340 338 340 341 340 339 339 339 339 339 337 337 338 338 339 338 338 337 334 331 330 328 329 331 331 332 333 333 334 333 333 333 334 335 335 336 335 335 336 337 336 336 335 334 333 334 335 335 334 333 333 333
347 344 345 344 345 344 340 343 345 345 346 346 346 345 343 342 340 338 337 340 341 342 343 341 340 338 336 337 340 340 339 340 340 340 338 337 338 340 341 340 339 339 338 338 339 339 339 339 338 338 338 336 333 329 325 326 329 331 331 332 333 333 332 332 333 333 335 336 335 333 333 334 335 335 335 334 333 333 333 334 334 334 334 332 332
346 344 344 344 344 343 342 343 345 345 345 345 345 344 343 341 339 337 337 340 341 341 340 339 338 336 338 340 342 341 338 337 338 340 338 337 338 340 341 339 338 338 338 339 340 338 337 338 337 338 338 337 335 331 326 323 326 329 330 331 331 331 331 331 333 333 334 334 333 332 332 334 333 333 333 333 334 333 333 332 333 333 333 332 332
346 345 344 344 344 342 341 344 344 344 344 344 344 343 342 340 339 338 339 340 340 339 338 338 336 337 341 341 341 339 336 336 338 340 338 338 341 341 339 338 339 340 339 340 340 337 337 338 337 338 338 338 337 335 329 324 322 325 328 329 331 330 328 329 333 333 334 333 333 333 333 333 332 332 332 332 333 333 333 333 332 331 331 330 331
346 345 345 344 344 341 342 345 345 345 344 343 343 342 341 341 341 341 341 340 338 337 338 337 336 339 340 339 338 338 338 339 340 341 340 339 340 339 337 338 340 340 340 340 340 339 340 340 339 339 338 337 337 336 333 329 323 321 323 325 328 327 327 330 333 332 332 332 333 334 333 333 332 331 331 332 332 331 331 331 331 330 330 329 330
346 346 344 344 343 341 341 344 345 345 343 343 343 342 342 342 341 341 341 339 336 338 338 337 338 339 337 336 337 339 340 342 342 342 340 337 337 337 336 339 340 341 341 341 341 341 341 340 340 339 337 337 336 336 335 332 326 321 320 322 326 328 330 332 334 332 331 332 332 333 333 333 332 331 331 331 331 329 329 329 330 330 330 330 330
347 346 344 344 342 341 341 342 343 343 344 344 343 342 342 341 341 341 339 337 337 338 338 337 339 338 337 336 339 340 342 342 342 342 339 337 337 337 339 340 341 341 341 341 341 340 340 340 339 337 335 335 334 335 335 333 329 321 320 325 329 331 332 334 335 333 333 334 334 334 333 333 332 331 331 331 331 330 329 330 330 330 329 329 329
347 346 345 343 342 342 342 342 341 341 343 343 343 343 342 341 340 339 337 338 338 338 337 338 340 338 337 339 340 341 342 342 342 342 338 336 338 339 340 341 341 341 341 340 340 340 340 339 337 335 334 333 334 335 334 334 329 321 322 329 330 332 333 334 335 334 334 335 335 334 332 331 331 330 330 330 330 330 330 330 330 329 329 328 327
347 347 344 343 342 341 342 342 342 342 342 342 342 342 340 339 337 336 337 338 338 338 339 340 340 338 338 339 340 341 341 341 341 340 338 337 339 340 340 340 340 340 341 340 340 339 338 337 335 333 333 334 335 335 334 333 327 321 326 331 331 332 334 335 334 333 334 334 335 334 333 331 330 330 330 330 330 330 329 329 328 328 328 327 327
348 347 344 343 342 341 341 341 342 342 342 341 339 338 337 337 335 336 337 337 338 339 341 341 340 339 339 339 340 340 340 339 338 338 337 337 339 340 339 339 340 340 340 340 339 338 336 335 333 333 333 334 335 334 332 329 324 321 328 331 331 333 335 336 334 333 334 333 334 333 331 329 329 330 330 330 329 329 328 328 328 328 328 327 327
348 346 345 344 343 342 340 340 340 339 339 339 338 337 336 336 336 336 337 338 340 341 341 342 341 340 341 341 340 340 339 338 337 336 336 336 338 339 339 339 340 340 340 339 339 337 335 334 333 334 334 334 333 332 329 326 323 324 329 331 332 333 334 336 335 335 335 334 333 332 330 329 329 330 329 329 328 328 328 328 328 328 327 327 327
348 346 346 344 343 342 341 340 339 338 338 338 336 336 336 336 336 336 338 339 340 341 342 342 342 341 341 341 340 340 340 338 336 335 334 334 336 338 338 339 340 339 339 339 337 335 334 333 333 334 334 333 332 331 328 327 325 326 329 332 333 334 334 336 335 335 335 335 334 332 331 329 329 329 329 328 328 328 328 328 327 327 327 327 327
348 346 346 345 344 342 342 340 339 338 338 338 335 336 337 336 335 335 337 339 340 341 342 342 341 340 339 339 339 340 340 338 336 335 334 333 334 337 338 339 339 339 338 337 335 334 333 332 332 334 334 333 332 331 329 328 326 326 329 332 333 334 334 334 334 335 335 335 334 331 330 329 329 329 329 329 328 328 328 328 328 328 327 327 327
347 346 345 344 343 342 343 340 340 340 339 339 336 335 336 335 335 336 337 339 340 340 341 341 340 339 338 339 339 339 338 337 336 335 334 333 333 335 337 338 339 338 337 335 334 333 333 331 332 334 334 333 332 332 330 329 327 328 332 333 334 334 334 333 334 335 335 334 332 330 329 329 329 330 329 329 328 328 327 327 327 327 326 327 327
346 346 345 344 344 342 343 342 342 341 340 340 337 335 336 336 336 337 339 339 339 340 340 340 340 339 338 338 337 338 338 337 335 335 334 332 333 334 335 337 337 336 335 334 334 333 332 331 331 333 334 333 333 332 332 330 328 331 334 335 334 335 335 334 333 333 334 333 331 330 329 329 329 329 328 328 328 328 327 327 327 326 326 326 326
347 346 345 344 344 343 343 342 343 341 341 341 338 337 335 337 337 338 338 338 339 339 339 338 338 338 336 336 337 339 339 337 336 336 335 333 333 334 334 335 336 335 333 333 333 332 331 330 331 333 334 334 333 332 332 331 330 332 335 335 336 336 335 333 333 333 333 332 331 329 329 329 328 329 328 328 328 327 327 327 327 327 326 326 326
347 346 346 345 344 344 343 342 343 342 342 342 341 339 335 337 337 337 337 337 337 337 337 337 337 337 336 336 338 339 338 337 337 337 337 335 334 334 334 334 335 334 333 333 333 332 330 330 330 332 334 334 334 334 334 332 331 333 335 336 336 335 334 334 333 333 333 332 330 328 328 329 328 328 328 327 327 327 326 326 325 325 326 325 325
346 345 345 346 346 345 343 343 343 343 343 343 342 339 337 338 337 337 338 338 337 337 338 339 339 338 338 338 338 338 337 337 338 337 338 337 336 335 335 335 335 334 333 333 332 331 330 329 329 331 333 334 336 337 336 334 332 334 336 337 337 335 333 333 332 332 332 331 329 326 326 328 328 328 327 327 327 326 326 326 325 325 325 325 324
345 346 345 346 346 344 343 342 343 344 343 342 341 340 340 340 338 339 339 338 337 338 340 340 340 339 338 338 338 337 336 337 338 338 338 337 337 336 336 336 335 334 334 333 332 331 330 330 329 329 332 334 336 337 338 337 334 335 337 337 336 335 334 333 332 332 332 331 329 326 325 327 328 328 327 327 327 327 327 326 324 324 325 325 324
345 346 345 345 345 343 342 342 343 344 343 342 342 340 341 340 339 340 340 340 339 340 341 339 339 338 338 337 337 337 335 336 337 337 337 337 337 337 337 336 336 335 334 334 333 332 331 331 329 329 332 333 334 336 337 338 336 336 338 337 336 335 334 333 333 333 333 332 330 329 328 328 328 328 327 328 328 326 326 325 324 324 325 324 324
345 345 343 343 343 343 343 344 344 344 343 342 341 340 340 339 339 340 340 340 340 340 339 338 338 337 337 337 337 336 335 335 335 335 334 335 335 335 335 334 335 334 333 333 334 332 332 333 331 330 332 333 334 335 336 337 337 337 338 336 336 336 334 334 334 334 334 332 331 331 330 330 329 327 326 327 327 326 326 325 323 323 323 324 324
345 344 342 342 343 343 343 344 344 344 343 341 341 341 341 341 341 340 340 340 340 339 337 338 338 338 337 337 337 335 334 334 335 336 335 334 333 333 334 334 334 333 332 333 333 333 332 333 332 332 333 332 334 335 337 338 338 337 337 337 336 336 335 335 335 334 333 333 332 331 331 330 326 325 326 326 326 326 326 324 324 323 324 324 323
345 344 343 342 342 343 343 344 345 344 343 342 342 342 342 341 341 341 341 339 338 339 338 337 338 338 337 337 336 335 335 335 336 337 336 336 336 335 335 334 334 334 334 334 334 333 334 334 334 334 333 333 334 335 335 336 338 337 336 336 335 335 335 336 336 334 333 333 332 330 329 326 319 322 326 325 324 325 325 325 325 325 325 325 323
346 345 344 342 341 342 343 343 345 344 342 342 341 342 342 340 340 339 339 338 338 339 337 337 337 337 337 337 337 337 336 336 337 336 336 337 336 336 335 335 335 334 335 335 334 334 334 334 334 333 333 332 331 332 333 334 336 336 334 334 335 335 336 337 336 334 333 334 333 329 327 323 319 324 326 325 326 326 326 326 326 326 325 325 324
346 346 346 345 342 341 341 340 343 344 342 341 340 340 340 338 340 339 337 338 339 339 337 337 337 336 336 337 338 339 337 336 336 335 335 335 335 335 335 335 335 334 335 335 335 335 334 333 333 333 332 330 330 331 332 332 334 334 333 334 335 335 335 335 335 334 333 334 333 330 327 325 325 328 328 328 329 327 327 327 327 326 325 324 323
345 347 346 345 342 340 341 341 342 343 342 342 340 339 340 339 339 339 338 339 339 339 338 337 337 336 336 338 339 339 338 337 337 336 335 335 335 336 336 336 336 336 336 336 336 336 336 335 335 334 333 331 331 330 330 332 334 333 333 333 333 334 334 334 333 332 332 333 333 331 329 327 328 330 330 330 330 328 327 327 327 326 325 323 321
345 347 345 342 342 342 342 343 342 342 341 341 341 340 339 338 338 339 340 340 338 338 338 337 337 336 338 339 339 339 339 338 338 337 336 336 337 338 337 337 337 337 337 337 337 337 337 337 337 337 335 334 333 332 330 332 333 333 333 333 332 332 333 334 333 332 332 333 333 332 330 329 328 329 330 330 330 329 328 327 327 326 326 324 321
345 344 343 340 341 344 342 342 342 342 341 340 341 341 339 338 337 338 340 339 338 337 336 337 337 338 339 340 340 340 339 339 339 338 336 337 338 338 338 338 337 337 338 339 338 337 337 336 337 337 336 335 335 334 332 333 333 332 332 333 333 331 331 333 333 332 332 332 333 332 331 330 329 329 329 329 329 329 330 330 329 329 328 327 325
344 343 342 340 342 343 341 340 341 341 341 340 340 340 339 339 338 338 339 339 338 337 337 337 337 338 339 340 340 340 339 339 339 338 338 337 338 338 338 338 338 338 338 338 338 336 336 336 336 335 335 335 334 334 333 334 333 332 331 333 333 332 333 335 334 333 332 332 333 331 330 330 329 329 329 328 328 329 329 330 330 330 330 329 329
345 343 342 342 342 342 340 340 341 340 339 339 340 339 339 339 338 338 338 338 338 338 337 337 338 338 338 339 340 339 339 339 338 339 339 338 338 338 338 338 338 337 337 338 337 336 336 336 335 335 334 334 334 334 334 334 333 333 333 333 333 333 336 337 336 334 332 332 331 330 330 329 329 329 330 329 326 327 328 329 329 329 329 329 330
345 344 344 344 343 343 343 342 341 341 340 340 340 339 340 339 338 338 338 339 338 337 338 338 338 338 337 338 339 339 339 339 339 339 340 338 337 337 337 338 337 337 338 338 337 336 336 336 336 335 334 333 334 333 334 334 334 335 334 333 334 334 335 336 335 334 332 331 331 331 330 329 329 329 330 329 327 326 327 328 328 328 329 329 329
345 344 345 344 343 344 344 343 342 342 341 340 340 340 340 339 339 339 339 339 339 338 338 337 337 336 336 336 338 339 338 339 339 339 340 338 336 336 337 338 338 338 339 338 337 335 336 337 336 336 334 334 334 333 334 334 335 335 334 333 333 333 334 334 333 333 331 330 331 330 330 330 330 329 329 330 328 327 327 328 328 328 328 328 329
345 345 345 344 344 344 344 343 342 341 340 341 341 340 340 339 339 339 339 339 338 337 336 336 336 335 336 336 338 339 338 339 339 339 340 337 335 336 337 338 337 338 338 337 336 335 335 336 336 336 335 334 333 334 334 334 334 334 333 332 332 332 333 332 332 332 331 330 330 330 330 330 330 329 329 328 328 328 328 328 328 328 328 327 327
345 344 345 344 344 344 343 343 343 342 340 340 340 340 339 338 338 338 339 339 338 337 335 336 336 335 335 336 338 338 338 339 339 339 340 337 336 337 337 338 338 338 338 337 336 335 336 337 336 336 336 334 333 334 334 333 333 332 332 332 333 332 331 331 332 332 331 330 330 330 329 329 329 329 328 328 328 329 329 329 329 328 326 324 323
344 344 344 344 344 344 343 341 342 342 339 339 340 340 339 338 338 338 338 338 336 337 336 336 336 335 335 336 338 338 338 339 339 339 339 337 337 337 338 338 337 337 337 337 336 336 337 338 336 336 336 334 333 334 334 333 332 332 332 332 332 332 331 331 331 331 331 330 330 329 329 329 329 329 329 329 329 329 329 329 329 327 325 322 321
344 344 344 344 344 344 343 341 341 342 340 339 339 339 338 337 337 338 337 337 337 337 337 336 336 336 336 337 338 338 338 339 338 338 338 338 337 337 337 337 336 336 337 337 337 336 337 337 336 335 335 334 334 334 333 333 332 332 333 332 332 332 332 332 331 331 331 330 331 330 329 329 329 330 329 329 329 329 329 329 328 327 325 324 324
343 344 344 344 344 344 343 340 339 340 340 339 339 338 337 335 336 336 335 336 338 337 337 337 336 335 335 337 338 338 338 338 338 337 338 337 337 337 336 336 336 336 336 337 337 337 335 335 336 335 334 334 334 334 333 333 333 332 333 333 332 331 332 332 331 332 331 331 330 329 330 329 328 329 329 328 329 329 328 328 327 326 326 326 326
343 343 344 343 343 343 341 340 338 337 338 339 338 337 336 335 337 336 335 336 337 337 337 337 335 334 334 336 338 338 338 338 337 337 338 337 337 336 335 335 336 336 336 337 337 336 335 335 336 334 333 333 333 333 333 334 333 333 333 332 331 331 332 332 332 331 331 330 330 329 330 330 329 329 329 328 328 328 327 327 327 327 326 326 327
343 343 343 343 344 342 339 338 337 337 338 338 337 336 336 337 337 335 334 335 336 336 336 335 334 334 334 334 335 336 336 336 336 336 336 337 336 336 335 335 335 336 336 336 336 335 335 336 335 335 333 333 333 332 332 333 332 332 333 332 331 331 331 331 332 331 329 330 331 330 329 330 329 329 328 329 328 327 327 327 327 327 326 327 328
344 343 343 343 343 341 337 335 336 339 338 337 338 337 336 336 334 334 333 334 335 335 334 334 334 334 334 333 334 336 336 335 335 335 335 336 336 336 336 335 335 335 334 334 334 334 335 335 335 335 334 334 333 331 331 332 331 331 332 332 331 331 332 331 331 331 330 330 330 330 329 329 329 329 329 329 328 327 326 326 327 327 326 326 327
345 344 343 343 342 339 336 335 337 338 336 336 337 336 335 334 333 334 334 334 335 334 334 334 334 333 332 332 334 336 336 336 335 336 336 336 336 336 336 335 335 335 334 334 334 333 334 334 334 335 334 335 334 331 331 332 331 331 331 332 331 330 331 331 331 331 330 330 330 330 330 329 329 329 329 328 327 325 325 325 326 326 326 325 326
344 345 344 342 342 338 335 337 337 335 334 335 335 336 335 333 334 335 334 333 334 334 334 334 333 333 332 332 335 337 337 337 337 336 336 336 336 337 337 336 335 334 334 334 334 333 333 333 334 334 334 334 333 333 332 331 332 332 331 332 333 332 332 331 331 331 330 330 330 330 330 329 328 328 328 327 325 324 323 323 323 324 325 324 324
343 344 341 339 339 337 335 337 335 332 332 333 334 335 334 333 334 334 333 333 334 334 332 332 332 333 332 333 336 337 337 337 336 335 334 334 335 336 337 336 335 335 335 335 335 334 334 333 333 333 334 334 334 334 333 331 331 332 332 332 332 333 332 331 330 330 330 330 329 328 330 330 328 327 326 325 323 322 320 319 318 319 319 320 320
343 340 334 331 331 333 335 334 332 330 332 333 334 334 333 334 335 334 333 333 334 334 332 331 332 332 332 334 335 335 335 335 334 334 334 333 333 334 334 334 334 335 334 334 334 334 334 334 334 333 333 334 333 333 333 331 330 330 331 332 333 333 333 332 330 330 330 329 328 328 329 329 329 326 325 323 322 319 317 316 315 315 314 315 315
341 336 331 328 328 332 335 334 331 330 333 335 334 332 332 334 334 334 335 334 333 334 333 333 333 332 331 333 334 334 335 335 334 334 334 333 333 333 333 332 333 333 332 332 332 334 335 335 335 334 332 332 332 332 332 333 332 330 330 332 333 332 331 331 331 331 331 330 329 328 328 329 328 326 324 322 321 319 316 315 314 313 312 312 312
339 335 331 328 329 333 335 333 331 331 334 334 334 332 332 333 334 334 334 333 332 332 333 333 333 333 331 331 334 335 335 335 335 334 334 333 333 333 333 332 333 333 331 332 333 334 335 335 336 335 333 333 332 331 331 333 334 332 332 334 332 330 330 331 330 330 331 331 329 329 329 329 327 326 324 322 320 318 315 314 312 311 310 310 310
Wind_Speed
19 23 26 24 21 22 22 23 23 25 26 26 25 25 25 25 24 24 23 22 23 25 26 26 24 21 19 19 18 18 18 17 16 16 15 15 15 14 14 14 15 15 14 13 13 14 13 13 14 14 13 13 14 15 16 15 13 17 17 17 18 18 18 17 17 18 19 21 21 21 21 22 20 19 21 20 20 21 20 20 19 19 20 19 20
21 22 25 24 22 22 22 23 23 25 26 26 25 24 25 25 25 24 24 23 24 25 26 26 23 20 19 19 18 18 17 17 16 15 14 14 15 14 14 14 15 14 13 14 14 14 14 14 14 14 13 14 14 14 16 14 12 15 16 16 17 17 18 18 18 18 19 20 21 22 22 23 21 20 20 20 20 20 19 19 19 19 19 19 19
22 21 23 24 22 22 22 23 24 25 26 26 25 25 25 25 25 25 24 24 24 26 27 25 22 20 19 19 18 18 17 17 16 15 14 14 15 14 13 14 15 15 14 15 15 14 14 14 14 14 13 13 13 13 14 14 12 14 16 16 17 18 19 19 19 18 18 19 20 21 22 22 20 19 19 19 19 19 18 18 18 18 17 18 19
22 20 22 24 23 22 22 23 24 25 26 26 26 26 26 26 25 25 24 24 25 26 26 23 21 20 19 19 19 19 17 16 15 14 14 14 14 14 14 14 15 15 15 15 15 14 14 14 14 14 13 13 13 12 13 13 13 14 16 17 18 19 19 20 19 18 18 19 19 19 21 21 19 18 18 19 19 19 18 18 18 17 16 16 17
23 21 21 23 21 21 22 23 24 25 26 26 26 26 26 26 26 25 25 25 26 26 25 22 21 19 19 20 21 20 18 16 14 13 14 14 14 14 15 15 15 15 15 15 15 14 13 14 14 14 14 13 13 13 12 11 13 15 16 18 20 20 20 19 19 18 17 18 17 16 17 18 17 16 17 17 17 16 17 18 17 18 16 15 16
23 21 21 21 19 19 22 24 24 26 26 26 26 26 27 26 26 25 26 27 27 26 24 22 20 19 19 21 20 19 18 16 13 13 14 14 13 14 15 15 15 15 15 14 14 13 12 12 12 13 13 13 13 12 11 11 13 15 15 18 20 20 19 17 15 14 14 13 11 10 13 14 14 14 15 15 15 14 16 16 16 16 15 15 15
23 22 21 20 19 20 23 24 24 26 26 26 26 27 27 27 26 26 28 28 27 25 23 22 20 19 20 20 17 16 17 16 13 14 15 14 14 15 15 16 16 15 15 14 14 13 11 11 11 12 12 12 12 12 12 11 12 14 14 16 19 19 17 14 11 9 7 6 6 9 12 12 12 12 13 13 14 13 14 13 14 16 15 14 15
21 21 21 20 19 21 24 23 24 26 26 26 27 27 27 27 27 27 28 26 25 24 22 21 19 20 20 18 16 15 17 16 14 15 15 14 14 15 16 16 15 15 14 13 13 12 11 11 10 10 10 10 11 11 12 12 12 12 12 14 18 18 17 14 13 12 9 6 8 10 11 12 12 11 12 12 12 12 12 11 12 13 13 14 15
20 20 21 20 19 23 24 23 24 25 26 27 27 27 27 28 27 27 26 24 22 22 21 20 20 20 18 17 16 17 18 17 16 16 16 16 15 15 17 15 15 15 14 13 12 12 11 10 9 8 8 9 9 10 11 11 11 10 11 11 15 17 15 14 13 12 11 10 12 12 12 14 13 12 12 12 12 11 11 12 12 11 11 13 15
20 20 20 19 21 24 25 24 25 25 26 27 27 27 28 27 27 26 24 22 21 20 20 20 20 19 17 18 18 17 18 16 16 16 17 18 17 16 16 15 14 14 13 13 12 11 9 8 7 7 7 7 8 8 9 9 10 10 10 11 14 16 14 12 12 12 11 11 12 14 16 15 14 14 13 12 12 11 10 12 14 14 14 14 15
20 19 19 20 23 25 26 26 24 24 26 26 27 27 27 26 26 25 23 22 21 19 19 20 19 18 18 18 18 17 16 14 15 17 18 18 18 18 16 15 15 13 13 12 11 10 8 8 7 7 6 6 6 7 7 8 9 10 12 14 16 14 10 8 9 10 11 13 13 14 15 15 15 14 13 12 12 11 11 13 14 14 15 16 16
21 20 20 22 23 25 26 26 25 25 25 25 26 25 25 26 25 24 22 22 20 19 19 21 19 19 19 18 18 17 15 14 15 18 18 18 18 18 16 15 14 14 13 12 11 9 8 8 8 6 5 5 5 5 6 7 8 10 15 16 14 10 7 8 7 8 12 13 14 14 15 15 15 15 14 13 13 13 14 14 13 13 14 15 16
22 21 22 23 22 25 26 25 25 24 24 24 24 24 24 25 25 23 23 22 20 20 21 21 20 20 20 19 18 16 14 15 16 17 18 19 18 16 15 15 13 12 12 11 10 9 8 8 7 6 4 4 4 5 6 7 7 11 15 15 13 11 11 13 9 8 11 12 13 14 15 15 15 15 15 13 13 14 14 14 13 14 14 14 15
23 22 23 24 22 25 26 24 24 24 23 23 24 25 25 25 24 24 22 21 21 21 21 20 20 21 21 20 18 17 15 15 15 15 17 18 17 15 16 15 13 12 12 11 10 8 7 7 6 5 4 4 5 6 7 8 8 11 15 14 11 9 10 12 10 9 11 12 13 14 15 15 15 15 14 13 13 13 14 14 14 14 14 15 16
23 23 23 23 23 24 24 24 24 23 23 23 25 26 25 25 24 23 22 21 21 21 20 19 21 22 21 20 18 17 16 15 15 15 16 16 15 15 15 14 13 13 11 10 9 7 7 7 6 4 4 6 7 8 9 9 9 12 13 10 7 6 8 9 8 9 11 12 13 14 14 14 15 14 12 13 13 13 14 14 13 14 15 16 15
23 24 23 23 24 23 22 22 23 23 23 24 25 25 25 25 24 23 22 21 20 19 18 19 22 22 20 19 18 17 16 15 15 15 15 15 15 15 15 14 13 12 11 10 8 8 7 6 5 4 5 8 9 9 9 10 11 12 11 7 7 9 11 11 8 8 10 11 12 13 14 14 14 13 12 13 13 13 13 12 13 14 14 14 14
24 24 24 24 24 23 22 21 21 23 23 23 24 25 25 24 25 24 22 20 19 18 18 20 22 20 18 18 18 18 16 14 15 14 14 15 16 15 14 13 12 12 10 9 8 8 7 6 5 5 7 9 10 10 10 10 10 10 10 10 12 13 14 13 10 9 10 11 12 13 14 13 12 12 13 13 13 13 12 12 13 13 12 13 14
24 23 24 25 24 23 23 22 21 21 21 22 23 25 25 24 24 23 21 19 19 18 19 20 20 18 17 17 17 17 15 14 14 13 13 15 17 15 14 13 12 12 10 9 9 9 7 6 5 5 7 9 10 10 9 10 11 13 14 15 16 16 15 14 11 10 11 11 12 13 13 13 12 12 12 12 12 12 12 12 12 12 12 12 13
22 22 24 25 24 23 23 23 22 21 21 21 22 24 24 24 23 22 20 19 18 18 18 19 18 17 17 16 16 16 14 13 13 12 13 14 16 15 13 13 12 11 10 10 9 9 7 6 5 5 7 9 10 9 9 9 11 15 17 17 16 15 14 12 10 10 11 11 12 13 13 12 11 12 12 12 12 11 11 11 11 12 12 12 12
20 21 23 24 24 24 24 23 23 23 22 21 21 22 22 23 22 21 20 19 18 17 18 17 17 17 16 15 15 14 13 13 12 13 14 14 15 14 13 12 11 11 11 10 9 8 7 6 5 5 7 8 9 8 8 8 10 13 14 14 14 14 11 9 9 10 11 12 13 13 12 11 11 11 11 12 11 11 11 11 11 11 11 11 12
19 21 21 23 23 24 24 23 24 23 23 22 22 21 21 21 20 19 19 19 18 17 18 17 16 15 15 14 13 12 13 13 12 13 14 14 14 13 13 13 12 11 11 11 10 8 7 7 6 5 6 7 9 8 8 8 9 11 11 12 12 10 7 8 9 10 11 11 12 11 11 11 11 11 10 11 11 10 10 10 10 10 11 11 11
20 21 20 21 22 23 24 24 24 24 24 23 22 22 21 20 19 18 18 18 17 17 17 16 16 15 14 13 13 12 13 13 12 13 13 14 14 14 13 13 13 12 11 11 10 9 8 7 6 6 6 7 9 8 7 8 9 9 10 11 9 6 5 7 8 9 10 10 11 11 11 11 10 10 10 10 10 9 9 9 9 9 10 10 10
20 20 20 20 20 21 23 25 25 25 24 23 22 23 22 21 20 19 18 17 18 17 16 15 14 15 15 15 15 13 13 14 12 12 13 14 15 14 13 13 13 12 11 11 10 10 9 7 7 6 6 6 8 8 7 8 9 9 8 8 6 5 6 6 7 8 9 10 10 9 10 10 9 9 9 9 9 9 9 9 9 9 10 10 10
20 19 18 19 20 22 23 25 25 24 24 22 22 22 22 21 20 19 18 18 18 16 14 14 14 15 16 16 15 14 14 15 13 13 13 14 15 14 13 12 11 11 10 10 9 9 9 8 8 8 7 6 7 7 7 9 9 7 3 4 5 6 6 6 7 8 9 10 10 9 10 11 9 9 9 9 8 8 8 8 9 9 10 10 10
19 17 18 20 21 24 24 24 24 23 22 22 21 22 21 20 20 20 18 17 17 16 14 14 16 18 17 16 16 15 15 16 15 14 13 13 13 13 12 11 10 10 9 9 8 8 8 9 9 9 8 7 7 7 9 10 8 6 5 5 6 6 5 6 9 9 9 10 10 10 11 11 9 9 9 9 8 8 8 8 8 9 9 9 9
17 16 19 22 22 23 23 24 24 22 21 22 21 21 21 19 19 20 18 16 17 18 17 16 17 17 17 17 17 17 17 17 15 14 13 12 12 11 10 10 9 9 9 8 9 9 9 9 10 10 9 9 8 8 9 10 9 8 7 7 7 6 6 7 9 10 10 10 9 10 11 10 8 8 8 8 7 7 8 8 8 8 8 9 9
17 17 20 23 23 24 25 25 23 21 21 21 21 20 18 17 17 19 17 16 18 18 18 16 15 16 16 16 18 20 19 17 15 13 12 11 11 10 9 9 9 9 9 8 8 9 9 9 10 10 10 9 9 9 9 9 11 9 8 8 8 7 6 7 9 10 11 10 9 10 11 9 7 8 9 8 8 8 8 7 7 8 8 8 8
16 16 20 23 25 25 25 24 21 20 21 20 20 17 16 18 19 19 16 17 18 17 16 16 15 16 15 14 16 18 17 15 14 12 11 10 10 9 9 9 7 8 8 7 7 8 7 7 8 9 9 9 8 8 9 9 11 10 9 9 8 7 7 7 9 10 11 10 9 9 10 9 9 10 9 8 9 9 8 8 8 7 7 7 7
14 15 17 21 25 24 23 22 19 19 20 21 20 16 17 20 20 18 17 18 17 16 16 16 17 16 14 13 13 14 14 14 13 12 11 10 9 9 9 8 6 6 6 6 6 7 6 6 7 8 8 8 8 9 10 9 11 11 11 10 8 7 7 7 9 11 11 11 10 9 9 10 11 11 10 10 9 9 8 8 8 7 7 7 7
12 14 15 16 19 20 19 19 19 18 17 19 19 17 19 20 19 18 19 19 16 16 17 16 16 14 14 14 12 11 11 12 12 11 11 10 10 9 8 7 7 6 6 6 6 7 6 7 8 9 9 8 9 10 11 11 12 12 10 8 8 7 7 7 8 11 12 13 11 10 9 10 12 10 9 10 9 9 8 8 8 8 9 8 8
13 14 14 12 15 18 18 18 20 18 16 16 16 17 18 18 18 17 17 18 18 18 17 17 16 14 13 12 11 11 10 11 11 11 11 10 10 8 7 7 6 6 6 6 6 6 6 7 8 8 9 9 11 12 12 12 12 11 8 6 7 6 7 5 6 10 12 12 12 11 10 11 11 10 9 8 9 9 8 9 9 9 9 9 9
15 16 14 12 16 18 18 21 22 18 15 16 17 18 18 18 19 16 14 16 17 17 17 18 16 14 13 10 10 11 10 10 10 10 11 10 10 8 8 7 6 6 6 6 6 6 6 7 7 7 7 8 10 10 11 10 12 12 9 9 9 8 10 7 6 9 11 11 12 12 12 11 10 10 9 8 9 9 9 9 10 9 10 9 10
16 17 14 14 19 19 19 21 21 19 16 17 18 19 18 19 20 17 16 16 16 17 18 18 15 12 12 10 10 11 10 10 9 10 10 10 9 8 8 7 6 6 6 6 6 7 7 6 6 6 6 7 7 7 8 7 12 12 11 11 10 11 12 7 6 9 10 12 12 12 13 11 9 9 8 7 7 9 9 9 9 9 9 8 8
16 17 15 16 21 22 21 21 19 20 18 16 18 18 17 17 19 19 18 18 17 17 16 16 13 11 12 11 11 11 10 11 10 10 10 10 9 8 8 7 6 6 6 6 6 7 7 6 7 7 6 6 6 6 6 5 12 11 11 12 11 11 10 7 8 9 10 13 12 11 12 11 11 10 8 7 7 10 10 8 7 7 7 6 6
16 18 18 20 24 24 23 21 18 18 18 17 17 17 16 15 16 18 18 17 16 15 13 12 12 11 12 12 11 11 10 10 11 10 9 9 9 8 8 7 7 6 6 7 6 6 6 6 7 7 7 7 7 7 6 5 10 11 10 12 10 10 9 7 9 8 8 12 12 10 10 11 13 13 10 8 9 10 10 8 7 5 5 4 4
17 18 20 22 24 23 22 23 21 20 20 21 18 16 17 15 15 16 15 16 14 13 12 11 11 11 11 12 11 10 10 10 10 10 8 8 8 8 8 7 7 7 6 6 6 6 5 5 6 6 7 8 8 8 6 4 5 7 8 9 8 7 6 7 8 6 9 12 11 11 11 11 13 13 12 10 10 10 9 7 6 4 4 4 4
19 19 20 23 24 23 23 24 26 26 24 23 20 18 18 14 14 15 13 14 14 12 12 11 11 11 11 12 12 11 10 10 10 9 8 8 8 8 8 7 8 7 5 6 6 6 5 4 5 4 6 7 6 6 5 3 3 5 7 7 7 8 7 7 7 4 9 11 10 11 10 11 12 13 12 11 11 10 8 6 5 4 4 5 5
19 19 20 23 24 23 25 24 25 28 26 25 22 19 19 15 13 15 13 13 13 11 12 11 11 12 11 12 12 11 11 10 10 9 8 8 7 7 7 8 8 7 6 6 5 5 5 5 5 4 5 6 5 5 5 5 4 5 7 6 7 8 7 7 6 4 9 11 11 11 10 11 12 12 12 11 10 9 7 6 5 4 5 5 5
19 20 20 21 23 23 24 24 24 26 26 24 20 17 18 15 13 14 12 12 12 10 11 11 11 12 13 12 12 12 11 11 10 9 8 8 7 7 7 8 8 7 6 7 6 5 5 5 6 5 4 6 5 4 4 4 6 7 8 7 7 6 4 4 4 4 9 12 11 11 11 12 12 12 11 10 9 8 7 6 6 6 5 5 5
18 19 20 22 23 22 23 24 24 24 24 23 20 17 17 15 13 14 13 14 13 10 10 11 11 12 13 13 13 12 11 11 10 9 9 8 7 8 8 8 8 7 7 7 6 6 6 6 6 6 6 6 4 4 4 5 9 9 9 8 7 6 4 2 2 5 10 12 10 11 13 13 13 12 11 10 9 8 7 6 7 8 7 7 8
19 20 21 22 23 22 23 24 25 24 23 23 20 19 19 17 15 14 15 15 13 11 11 12 12 12 13 13 13 13 12 12 11 10 10 9 8 9 9 9 8 8 8 7 6 6 7 7 6 6 7 6 5 5 6 7 7 8 8 8 7 5 4 2 3 5 8 10 9 10 13 13 12 10 9 9 9 8 7 6 7 8 8 8 10
20 21 21 22 22 22 23 22 24 24 21 21 18 17 19 17 15 15 16 15 13 12 11 10 12 13 13 14 13 13 13 12 12 11 10 10 9 10 10 10 9 8 7 6 6 6 7 7 7 7 7 7 7 7 9 8 6 7 8 7 5 5 4 3 6 5 6 9 8 8 10 11 10 9 8 8 8 8 8 8 8 7 9 10 11
19 20 21 22 22 23 23 18 19 21 20 20 18 17 15 13 11 11 14 14 11 11 10 9 13 13 14 14 13 13 13 12 12 11 11 11 11 11 11 11 10 9 7 7 7 7 7 7 7 7 7 8 7 7 9 7 4 7 7 5 4 4 4 3 5 5 4 8 8 6 6 8 9 9 9 9 8 9 9 9 9 9 11 12 12
19 20 20 22 23 24 22 16 16 20 22 21 19 17 14 11 11 10 12 14 12 11 12 12 13 12 12 13 13 13 13 12 13 12 12 12 12 12 11 11 10 9 8 8 8 8 8 8 8 7 7 9 7 8 9 8 6 7 5 3 4 3 3 4 5 5 4 7 8 6 5 7 9 10 10 9 8 9 9 9 10 11 12 14 13
20 22 21 22 22 21 20 18 21 23 22 21 18 15 14 15 15 13 13 14 14 14 14 14 14 12 12 14 13 13 12 12 12 12 12 12 13 11 10 11 11 10 10 9 9 8 8 8 8 8 7 7 6 9 9 7 8 10 5 1 3 1 1 6 7 5 4 5 7 6 5 8 9 9 10 9 9 9 9 10 11 11 12 14 14
23 24 22 21 20 18 18 19 20 19 17 19 20 17 15 17 16 14 14 12 13 15 13 14 17 15 16 17 13 12 13 12 12 12 12 12 11 11 10 11 11 11 11 9 9 9 9 10 9 8 7 5 5 9 11 8 7 9 6 4 1 0 2 7 5 3 5 5 7 6 5 8 9 9 8 8 9 10 9 10 10 11 11 12 13
26 25 20 18 16 15 16 15 16 18 13 14 21 20 19 19 14 12 14 13 13 13 12 14 17 16 17 17 13 12 13 12 12 12 12 12 11 11 11 10 10 11 11 9 9 10 10 10 9 9 8 7 5 7 10 10 7 7 6 4 2 0 3 6 4 3 5 5 6 7 6 8 9 9 8 8 9 9 10 10 10 11 11 11 12
24 18 12 11 11 13 13 7 10 19 14 11 19 22 18 17 15 14 16 15 12 11 13 14 13 14 17 14 12 13 13 12 12 12 12 12 11 11 11 10 9 9 10 9 9 9 9 9 9 9 7 8 8 7 7 10 9 8 6 4 3 2 4 7 6 3 2 4 6 7 7 8 9 9 9 9 10 10 10 10 11 11 11 12 12
13 7 6 5 7 10 11 5 6 17 19 15 20 22 15 14 18 20 19 16 13 13 15 14 13 16 16 13 12 12 12 12 11 11 10 10 11 10 10 10 9 9 9 9 9 9 9 8 8 9 8 8 9 8 8 8 9 9 8 6 3 3 4 7 8 5 3 4 6 6 8 9 8 9 9 9 10 10 10 10 11 11 11 11 11
4 7 6 6 7 7 11 11 9 15 20 17 18 20 17 16 20 21 22 20 16 16 17 16 16 15 13 11 11 11 11 11 10 9 10 10 10 9 9 9 9 8 8 7 8 8 8 8 8 7 8 9 9 10 10 7 6 9 9 7 4 4 3 4 7 7 4 4 5 7 9 10 9 9 10 10 10 10 10 10 10 10 11 11 11
10 13 14 12 8 5 10 12 10 10 14 14 16 20 19 19 20 21 24 23 19 18 17 17 17 15 13 12 11 11 10 10 9 9 9 9 9 8 8 8 8 8 7 7 7 8 8 8 8 7 8 8 8 9 10 8 6 7 7 5 5 5 3 2 3 5 5 4 6 7 9 11 11 11 10 10 10 10 10 9 9 10 11 11 12
Wind_Direction
138 135 145 161 154 151 153 156 162 163 164 163 163 162 160 159 157 156 154 152 148 147 149 149 145 142 141 142 139 135 134 134 131 128 124 120 120 120 118 118 116 113 113 113 109 106 104 103 104 103 99 100 101 97 95 92 87 89 88 91 95 95 94 92 92 90 89 89 89 88 87 87 83 83 84 81 79 78 78 79 77 77 77 76 76
137 136 145 157 154 154 153 157 162 163 165 164 165 163 161 160 159 157 155 154 150 150 151 149 145 144 145 145 142 136 136 135 130 128 127 124 123 122 122 122 119 117 116 116 114 109 103 104 105 103 100 100 104 104 101 96 94 96 95 96 98 99 98 96 96 94 91 91 91 89 88 86 83 81 81 79 78 76 76 77 76 74 72 73 74
134 138 141 153 156 154 154 158 161 163 165 166 165 162 162 162 160 158 155 153 150 150 150 147 146 147 148 147 144 139 137 135 132 132 132 128 127 127 126 125 123 122 121 121 118 111 104 104 104 103 101 100 105 109 107 101 101 100 100 103 103 103 102 100 98 95 92 91 90 88 87 85 83 81 79 78 75 74 73 74 74 73 72 71 70
134 138 139 152 155 153 156 157 160 162 164 165 164 162 163 162 161 158 154 151 148 149 150 149 150 150 149 148 147 143 140 137 136 138 137 131 131 131 126 125 127 128 127 126 121 115 109 104 101 100 99 99 102 110 115 106 106 106 105 108 107 105 102 98 97 97 96 91 90 89 88 86 81 77 79 77 72 70 69 68 68 65 67 72 70
135 140 140 148 149 153 156 156 160 160 163 163 162 162 162 161 160 156 153 149 147 149 151 152 152 151 147 148 149 148 145 141 138 139 140 135 135 135 128 128 131 132 129 127 124 121 115 107 101 97 94 97 99 107 116 108 111 113 110 112 111 107 103 100 100 104 104 100 100 96 90 88 81 74 75 75 73 75 72 67 65 63 62 67 69
135 141 139 143 142 150 156 157 159 159 161 161 161 162 160 160 158 155 152 149 149 151 153 154 153 149 147 148 147 148 148 146 144 144 144 140 138 135 133 135 134 132 130 128 127 125 120 114 105 99 94 93 98 104 110 113 122 121 116 117 115 110 105 103 105 112 117 117 110 93 88 89 85 76 73 70 66 69 73 71 69 69 67 67 67
134 143 142 142 140 149 155 154 156 158 160 159 161 161 160 160 157 155 153 151 152 153 155 155 152 149 148 148 145 147 150 150 151 148 149 147 141 140 140 138 135 134 133 133 131 128 124 118 111 106 99 91 93 99 104 112 127 129 123 122 121 114 107 103 99 98 113 131 107 83 86 88 90 84 78 71 63 66 75 80 82 79 76 74 72
136 145 144 142 143 152 153 153 154 157 159 159 161 160 160 158 156 155 154 155 155 155 155 154 151 150 148 148 147 150 152 153 151 150 153 146 140 140 140 138 138 139 136 135 133 132 128 122 118 112 102 94 90 95 102 108 123 135 134 131 128 122 108 96 89 78 75 94 91 82 89 91 93 92 83 75 72 76 76 79 90 87 83 79 75
140 145 144 142 146 154 153 153 154 155 157 158 159 159 158 156 156 156 156 155 154 155 154 152 151 151 149 150 153 151 151 153 153 154 153 142 138 138 138 141 143 141 138 137 137 137 132 123 122 119 109 101 94 92 98 106 119 132 142 142 136 132 113 92 81 69 70 82 77 71 85 93 90 91 87 80 80 86 83 77 78 77 78 80 77
142 142 143 143 149 155 152 151 151 154 157 159 159 158 157 156 156 156 155 152 151 153 153 152 151 151 151 154 155 152 150 154 156 155 151 145 144 143 144 148 144 143 144 143 142 138 132 126 121 119 117 109 103 97 92 100 113 121 135 141 135 131 117 91 66 57 70 82 78 72 78 87 86 88 90 89 87 92 91 79 74 73 74 77 78
140 140 142 145 153 156 152 152 150 153 156 158 158 158 158 157 157 155 153 152 151 152 153 153 152 151 152 154 153 151 151 156 158 155 151 148 149 150 151 150 147 150 152 148 141 132 125 124 124 125 125 118 111 106 95 93 106 118 124 127 124 121 115 85 57 64 81 85 87 83 80 84 85 88 91 88 87 89 83 77 79 84 84 80 79
142 140 142 147 155 155 152 154 153 154 154 155 157 157 157 158 158 155 153 152 151 152 154 154 153 153 152 152 152 151 151 153 155 153 149 147 150 152 152 150 154 158 153 144 134 131 134 135 139 136 125 115 110 104 102 96 101 119 125 125 120 110 93 64 57 76 83 84 87 84 83 84 86 89 90 85 84 86 85 84 86 87 87 83 80
145 139 140 147 153 154 152 152 153 154 155 155 156 155 157 159 158 155 153 152 151 153 155 158 156 155 155 153 153 152 149 150 153 152 149 148 151 152 153 154 159 157 145 140 137 140 146 151 151 137 118 106 105 104 107 104 101 121 128 123 108 90 71 58 62 81 80 83 84 82 83 84 87 90 88 85 84 86 87 85 83 81 82 81 79
144 138 139 145 151 156 154 152 152 153 154 155 156 156 158 157 156 155 155 153 154 155 158 161 159 158 157 154 154 154 153 153 155 153 150 150 152 154 157 160 161 151 142 143 144 146 151 155 143 123 117 107 108 110 111 112 108 121 126 116 101 88 70 60 70 84 82 83 83 84 85 84 87 89 88 86 85 86 85 81 82 83 81 81 80
142 139 140 143 149 154 155 155 154 155 156 157 158 158 158 157 157 157 156 156 157 159 162 163 161 160 157 156 156 156 158 157 159 157 153 151 152 158 161 164 161 150 146 144 149 156 154 145 124 110 119 116 112 112 114 113 113 122 124 115 98 83 72 67 79 87 84 86 84 84 86 88 90 90 88 86 86 87 84 85 86 84 83 83 84
141 141 141 143 146 151 154 155 156 158 158 158 158 157 159 160 160 159 157 159 161 162 163 162 162 160 158 159 160 160 158 155 159 159 157 157 157 163 167 165 157 150 147 145 158 161 147 134 116 109 124 125 116 111 112 109 112 120 121 108 85 78 75 76 87 87 85 88 87 86 88 91 93 90 86 84 86 87 87 89 86 82 84 84 84
143 144 144 146 147 149 152 154 158 159 159 158 156 157 159 161 161 160 159 161 163 162 160 158 158 159 159 160 162 160 155 150 154 158 162 166 165 167 168 163 152 150 152 149 154 154 146 134 114 106 125 133 122 114 109 104 106 109 109 97 82 79 77 79 87 85 83 86 87 88 90 92 91 88 86 86 86 86 87 87 85 85 86 84 86
148 150 149 149 148 150 151 155 157 155 156 154 154 157 160 161 161 160 160 161 160 160 159 157 156 157 157 159 161 158 152 149 152 157 162 170 170 170 167 160 154 154 156 153 151 155 150 131 115 102 121 136 128 117 109 102 99 98 100 94 83 81 79 81 86 85 82 82 85 87 91 93 90 88 87 87 87 87 86 87 87 86 84 84 87
153 155 154 152 151 152 153 154 155 155 154 151 154 159 161 160 160 160 161 161 159 159 157 155 155 154 154 154 157 155 153 152 154 157 158 166 171 172 170 162 157 156 157 155 154 158 146 128 123 104 115 138 136 121 112 105 101 98 95 89 81 76 73 78 86 86 83 80 85 89 93 94 92 90 87 87 87 87 88 88 87 84 83 82 83
157 157 157 156 155 154 155 155 155 156 153 151 155 159 162 160 159 160 160 160 158 157 154 154 153 151 153 152 154 153 152 154 155 158 158 161 167 170 171 168 163 159 159 161 165 161 142 131 131 115 114 134 141 131 121 114 107 101 93 87 77 66 64 76 84 85 86 85 88 92 96 96 93 90 89 90 87 86 87 87 87 85 85 83 82
159 160 161 160 158 157 157 156 156 156 154 153 154 157 162 159 158 159 158 158 157 156 154 154 155 154 156 153 151 150 150 156 159 159 157 159 163 163 166 169 165 163 164 167 173 166 150 141 140 129 118 130 143 142 133 124 115 104 94 86 74 68 76 86 89 90 90 89 92 98 101 95 91 92 92 92 90 89 89 88 89 87 86 84 82
162 163 164 162 159 159 158 158 157 157 156 154 153 156 159 156 157 159 158 159 157 156 154 156 157 155 154 151 154 157 157 161 162 160 159 160 160 158 161 166 163 166 169 170 172 166 160 152 145 139 134 135 137 148 152 134 124 114 99 87 77 87 103 98 99 96 91 89 94 102 103 97 96 97 93 91 92 93 91 89 88 88 89 86 85
166 165 164 162 159 161 162 160 159 159 157 154 154 156 157 157 159 160 160 161 159 157 156 156 155 152 152 156 163 164 164 166 165 163 161 159 156 155 158 162 163 167 171 172 171 167 168 159 150 151 150 139 139 160 170 154 139 124 105 89 93 118 117 112 109 100 94 95 101 108 109 106 104 100 97 95 91 89 89 88 87 87 87 85 86
168 165 161 159 159 164 167 164 162 161 158 155 155 157 158 159 159 159 161 162 159 156 157 159 158 157 159 164 165 160 164 169 168 164 161 159 157 155 157 162 165 169 171 170 172 174 174 168 162 160 163 166 171 180 178 177 163 141 138 126 129 134 127 122 112 108 104 103 110 110 108 110 109 102 102 102 97 97 96 93 92 88 85 83 83
166 160 157 160 162 167 170 168 165 162 160 158 157 159 160 159 160 160 159 161 160 158 164 171 169 166 168 166 159 157 163 164 163 162 159 158 156 155 160 165 166 169 170 166 174 185 181 178 175 172 184 199 199 193 181 184 184 177 182 157 146 149 140 124 115 117 112 110 116 109 103 106 110 110 109 108 105 104 99 95 94 90 89 88 85
166 160 163 169 169 170 173 170 166 163 164 162 159 161 162 159 161 162 160 162 165 167 172 177 174 172 173 166 157 160 166 162 162 164 160 159 158 158 164 166 167 172 176 175 178 186 186 185 188 191 201 210 206 198 188 188 195 187 169 161 161 159 147 128 123 122 116 116 121 116 113 111 113 119 118 116 112 106 100 97 97 93 88 85 85
172 164 165 174 176 178 178 171 167 167 165 163 160 160 161 157 159 161 162 166 169 171 176 177 176 177 175 173 172 169 166 162 162 164 161 161 160 160 162 163 165 170 177 182 179 183 193 192 196 204 206 208 204 198 194 191 195 189 172 174 170 159 151 134 131 126 119 120 123 121 122 121 115 118 117 115 112 107 105 98 94 91 87 87 87
177 169 165 175 181 181 178 171 167 168 165 163 161 159 161 161 162 163 163 168 167 166 175 178 177 178 172 178 184 168 158 156 156 158 156 155 155 152 153 158 160 161 168 173 172 180 192 193 196 204 204 205 203 202 203 200 204 199 183 179 168 157 150 137 135 130 124 124 126 122 118 117 112 114 118 117 113 108 105 98 94 92 91 94 92
177 173 173 181 181 177 175 171 167 170 171 167 160 160 169 168 165 166 169 169 165 162 174 179 177 179 175 181 183 158 151 154 154 156 153 151 151 150 150 156 156 156 162 157 164 175 181 190 195 198 204 209 207 206 207 211 209 194 188 187 169 156 146 139 140 136 136 133 132 126 112 116 116 112 110 108 106 100 100 98 97 99 98 98 96
180 179 182 184 173 168 173 170 170 174 175 170 161 165 175 171 165 168 172 169 164 166 173 174 175 185 185 181 172 150 149 153 154 156 152 151 152 155 154 156 159 156 158 153 161 173 177 186 190 195 200 205 208 208 209 212 205 193 202 194 155 151 150 146 150 146 147 141 137 132 117 119 120 115 111 109 106 100 105 109 101 97 95 94 94
183 183 184 180 163 166 173 170 173 176 175 173 164 167 175 170 168 171 170 167 169 174 174 170 173 185 184 175 161 149 151 152 155 156 153 154 155 158 158 157 161 156 157 158 165 173 181 188 191 203 204 204 211 212 210 207 197 192 203 174 140 153 153 152 161 148 148 144 138 136 127 121 120 121 123 122 116 106 104 107 102 99 97 95 97
182 183 181 169 165 169 173 173 173 174 177 181 172 166 169 166 169 175 168 165 172 175 173 173 175 180 175 167 158 154 156 153 153 156 155 158 157 158 159 159 160 160 164 162 169 176 184 194 198 213 213 212 214 209 209 195 175 181 188 165 158 168 160 165 169 143 146 151 144 140 132 123 121 125 125 124 125 119 110 106 105 106 103 101 103
181 183 175 162 174 174 171 177 175 171 177 188 180 168 167 167 169 173 169 165 168 172 175 179 179 175 168 163 161 159 161 159 154 156 158 159 159 163 162 164 167 165 168 164 171 182 187 194 199 210 209 213 213 204 214 180 146 173 193 170 161 170 165 173 184 159 152 154 147 135 130 129 130 133 127 120 128 131 130 125 117 113 111 110 109
180 181 173 164 181 179 172 180 178 173 182 190 181 174 171 168 169 170 169 166 167 175 181 179 173 169 168 166 164 163 164 163 159 158 161 162 162 168 167 170 175 168 172 174 179 189 191 196 200 207 204 211 215 203 217 156 122 150 184 170 160 170 173 176 177 167 155 151 144 125 127 142 145 145 141 129 135 142 141 138 124 116 119 121 118
182 181 177 172 180 179 173 175 174 177 188 189 179 178 176 169 170 168 168 168 168 174 174 170 168 167 169 167 166 167 167 167 165 164 165 167 166 171 173 173 174 172 180 184 190 195 191 198 205 207 204 211 218 201 205 171 129 134 161 167 165 176 188 181 169 170 157 146 135 123 134 155 156 151 144 133 137 141 137 133 125 112 105 102 105
186 185 180 175 178 179 174 171 172 178 183 182 177 181 179 172 171 166 167 169 169 172 168 168 170 167 168 168 170 170 171 171 168 169 168 171 172 174 176 172 172 177 179 181 193 196 186 201 215 215 209 215 218 197 186 183 150 127 143 166 172 182 195 181 182 179 144 136 134 131 133 147 157 154 142 133 133 130 126 127 120 102 87 78 80
189 189 183 179 180 182 179 174 176 180 180 178 176 181 181 173 167 164 169 170 168 170 165 168 170 170 174 172 174 174 175 176 173 174 174 177 179 177 176 167 171 177 171 180 196 194 182 197 217 222 223 226 223 205 189 175 161 123 140 174 176 180 191 183 196 174 122 136 155 150 139 139 147 149 143 137 134 130 126 122 111 92 75 67 74
192 193 191 185 184 187 185 180 180 181 183 180 174 179 182 171 160 160 166 166 168 174 167 169 174 176 179 173 174 177 177 178 177 177 178 185 181 171 174 167 170 175 172 184 196 190 180 191 205 208 224 228 220 218 215 188 159 127 145 174 166 175 201 185 176 145 121 139 152 151 151 144 142 147 148 143 137 135 131 119 103 89 76 73 77
197 196 195 190 190 191 188 183 180 180 184 180 171 178 182 171 162 162 163 162 168 178 171 174 182 183 182 176 174 177 178 179 179 179 179 190 179 165 174 169 171 179 179 188 189 188 184 183 194 193 206 223 214 204 205 164 124 119 144 159 145 151 195 181 154 128 128 135 138 145 154 148 144 145 142 138 136 131 130 128 115 94 72 74 81
201 201 198 197 196 195 191 185 180 178 179 176 171 178 180 176 175 166 162 164 166 174 178 181 186 188 186 180 177 176 177 179 181 181 180 187 181 173 177 172 178 185 184 191 188 185 184 179 187 187 189 206 206 184 169 135 112 112 129 135 131 139 153 184 170 114 123 132 137 145 150 147 142 142 137 136 135 123 116 123 123 105 83 76 80
204 206 202 200 200 199 195 186 179 177 174 175 177 180 179 182 183 167 163 168 167 172 182 186 188 191 189 182 180 177 176 177 180 184 184 187 185 183 183 180 187 190 188 191 182 178 181 181 184 182 187 193 189 175 155 138 123 119 126 125 123 131 134 144 129 109 119 132 141 146 145 142 138 137 136 130 127 125 116 111 115 111 107 99 87
208 210 206 202 202 202 202 192 181 180 177 176 179 180 182 186 185 173 170 171 170 177 183 191 193 193 191 185 180 177 174 177 181 186 187 188 191 191 188 186 190 191 190 185 175 178 184 186 185 180 190 191 184 176 154 145 161 161 145 136 128 120 117 110 111 116 125 130 146 158 141 135 134 124 122 128 126 123 115 112 117 118 121 116 100
211 213 212 208 205 203 207 201 183 180 182 182 180 181 186 189 178 158 161 168 171 182 187 194 193 193 200 195 181 175 176 178 183 188 190 192 196 198 192 188 191 187 183 180 176 184 188 188 192 185 192 196 187 178 166 164 186 172 155 158 158 139 138 133 122 131 140 124 132 162 141 124 130 129 129 134 125 113 109 111 114 109 110 110 101
215 214 212 212 210 204 203 199 189 186 184 182 177 175 175 171 159 140 156 173 174 184 193 195 193 196 211 206 185 176 179 181 185 191 196 197 196 197 193 188 188 183 180 183 182 189 192 191 196 191 195 203 185 164 173 185 184 171 171 162 155 164 162 152 137 126 128 120 124 157 153 122 126 134 132 120 107 107 110 110 108 101 102 106 104
220 215 210 212 213 205 199 196 199 194 185 178 169 165 169 167 161 159 175 177 170 183 196 200 196 191 206 211 193 180 183 186 190 196 200 202 197 192 193 188 182 184 189 190 190 195 198 196 197 192 200 211 181 159 174 195 187 182 211 232 142 197 182 144 141 121 120 130 131 148 142 125 131 130 123 118 113 113 111 109 107 104 103 106 107
222 217 211 212 211 207 204 200 194 187 181 180 175 173 179 173 162 166 181 173 167 184 197 203 197 187 202 213 196 182 190 191 193 197 197 200 197 190 194 193 182 187 192 191 196 200 199 201 196 188 195 205 183 172 173 180 192 191 220 261 234 315 135 147 154 130 128 128 124 132 123 125 137 130 121 125 124 118 113 109 106 103 99 99 100
223 218 210 208 207 206 210 207 191 184 177 170 177 183 183 176 163 161 174 171 170 184 195 202 198 194 207 209 191 185 193 192 191 193 192 192 193 189 192 194 187 191 191 189 200 199 197 203 195 188 191 184 188 195 175 166 192 207 210 236 255 242 140 155 171 140 138 136 121 128 125 120 126 126 126 127 123 120 119 115 108 102 98 96 96
227 222 208 202 201 206 220 226 177 179 182 168 178 187 183 175 170 167 174 174 168 177 190 197 199 210 215 202 187 189 190 190 189 187 188 189 190 190 189 189 188 192 189 189 198 194 193 199 188 184 182 172 184 204 185 172 191 213 208 212 234 198 155 159 172 172 161 151 133 130 129 125 124 126 130 128 122 121 123 119 113 106 102 100 99
227 206 193 170 156 188 215 232 155 171 183 180 181 186 182 176 176 173 173 170 163 173 183 182 190 215 224 204 187 188 184 184 185 182 184 186 187 186 185 186 187 189 190 190 192 188 189 189 181 179 178 176 184 198 201 188 186 199 204 203 189 169 170 169 169 184 211 173 155 147 138 137 133 126 128 130 127 125 123 119 116 114 109 105 104
140 125 146 128 122 165 203 203 176 175 178 167 170 182 184 185 183 177 172 167 166 181 183 174 181 204 223 210 186 180 177 174 177 179 178 179 181 180 181 184 183 183 186 186 182 180 182 181 176 181 185 185 193 202 207 203 185 192 203 200 181 165 183 189 171 175 207 201 162 153 152 149 137 128 133 138 136 132 126 123 121 119 116 113 111
98 101 102 110 132 175 199 185 150 161 173 160 167 178 184 191 190 184 179 172 171 183 184 178 183 191 202 211 194 173 171 170 171 175 174 176 177 176 180 182 180 179 179 177 173 173 178 177 175 181 183 186 198 200 201 206 204 205 207 197 189 184 200 242 185 171 193 189 153 147 155 151 139 137 144 147 144 139 135 132 127 123 121 120 116